[[{"header":{"parameterUnit":"m.s-1","parameterCategory":1,"la1":30.2991,"la2":30.254,"lo1":-89.0895,"lo2":-89.0444,"dy":0.0017,"dx":0.0017,"nx":28,"ny":28,"refTime":"2024-09-02T21:00:00:Z","depth":0,"parameterNumber":2,"parameterNumberName":"U-component_of_WINDS"},"data":[0,0,0,0,0,0,0,0,0,0,0,0,0,0,0,0,0,0,0,0,0,0,0,0,0,0,0,0,0,0,0,0,0,0,0,0,0,0,0,0,0,0,0,0,0,0,0,0,0,0,0,0,0,0,0,0,0,0,1.6881,1.6881,0,1.6954,1.6954,1.6955,1.6947,1.6946,1.6945,1.6944,1.7009,1.7012,1.7015,0,0,0,0,0,0,0,0,0,0,0,0,0,1.6725,1.6728,1.688,1.6881,1.6882,1.6953,1.6954,1.6955,1.6947,1.6946,1.6945,1.6943,1.7008,1.7012,1.7015,0,0,0,0,0,0,0,0,0,0,0,0,0,1.6794,1.6729,1.688,1.6887,1.6889,1.6953,1.6954,1.6956,1.6948,1.6946,1.6944,1.6943,1.7007,1.7011,1.7015,1.7075,0,0,1.7028,1.703,0,0,0,0,0,0,0,0,1.679,1.68,1.6885,1.6887,1.6889,1.694,1.6923,1.6995,1.6948,1.6925,1.6944,1.6942,1.6987,1.6993,1.701,1.7078,1.7081,1.7029,1.7031,1.7033,1.7034,0,0,0,0,0,0,0,1.6786,1.6797,1.6909,1.6886,1.6888,1.6884,1.6892,1.6937,1.6964,1.6927,1.6927,1.6936,1.6987,1.7006,1.7011,1.7082,1.7028,1.7032,1.7035,1.7036,1.7202,1.7203,0,0,0,0,0,0,1.678,1.6793,1.6907,1.6911,1.6835,1.6888,1.6897,1.6925,1.6964,1.6968,1.6937,1.6935,1.6999,1.7006,1.7013,1.7085,1.7033,1.7037,1.7039,1.72,1.7202,1.7204,0,0,0,0,0,0,1.6777,1.6791,1.6904,1.6852,1.6866,1.6892,1.6924,1.6927,1.6946,1.6972,1.6975,1.6952,1.6998,1.7007,1.706,1.7087,1.7039,1.7042,1.7197,1.72,1.7203,1.7229,0,0,0,0,0,0,1.6773,1.679,1.6815,1.6853,1.6869,1.6952,1.6926,1.693,1.6954,1.6952,1.6986,1.699,1.6998,1.7054,1.7064,1.7092,1.7046,1.7195,1.7199,1.7202,1.7226,1.7232,1.7238,0,0,0,0,0,1.6767,1.6817,1.6816,1.683,1.6901,1.6954,1.6963,1.6973,1.6956,1.698,1.6997,1.6989,1.7083,1.7059,1.7071,1.71,1.7193,1.7198,1.7202,1.7223,1.7231,1.7238,0,0,0,0,0,0,1.6777,1.6822,1.6821,1.6886,1.6917,1.6952,1.6983,1.6981,1.7015,1.7011,1.702,1.7028,1.7081,1.7096,1.7069,1.716,1.7135,1.7142,1.7148,1.7155,1.7161,1.7156,1.7049,0,0,0,0,0,1.6788,1.683,1.6865,1.6918,1.6934,1.6956,1.6979,1.6985,1.7016,1.7028,1.7048,1.7076,1.7111,1.7134,1.7169,1.7229,1.7235,1.7254,1.726,1.7265,1.727,1.7302,1.731,1.7218,1.7218,1.7218,0,0,1.6808,1.6838,1.6863,1.6921,1.6946,1.6986,1.6967,1.701,1.7039,1.7033,1.7085,1.7101,1.7132,1.7189,1.7214,1.7203,1.7298,1.7271,1.7274,1.7277,1.7307,1.7316,1.7323,1.7221,1.722,1.722,0,0,1.6865,1.6893,1.6941,1.6966,1.7005,1.702,1.7031,1.7068,1.7079,1.7133,1.7129,1.7162,1.7224,1.7246,1.7265,1.7333,1.7326,1.7344,1.7375,1.7405,1.7413,1.7419,1.7441,1.745,1.7349,1.7349,1.7349,0,1.6884,1.6949,1.6964,1.7009,1.7033,1.7034,1.708,1.7103,1.715,1.7165,1.7153,1.7231,1.7252,1.7313,1.733,1.7346,1.7357,1.7339,1.7411,1.7418,1.7424,1.7445,1.7454,1.7351,1.7351,1.7351,1.7351,0,1.697,1.7014,1.7047,1.7096,1.7125,1.7169,1.7189,1.7215,1.7219,1.7234,1.7287,1.7313,1.7352,1.7367,1.737,1.7429,1.742,1.741,1.7385,1.7434,1.7454,1.7463,1.7354,1.7353,1.7352,1.7352,0,0,1.7033,1.7092,1.7104,1.7126,1.717,1.7202,1.7247,1.7289,1.7311,1.7343,1.7378,1.7432,1.7422,1.7444,1.745,1.7477,1.7527,1.7462,1.7463,1.7472,1.7591,1.7598,1.7608,1.7524,1.7526,1.7527,1.7588,0,1.7093,1.7176,1.7192,1.7262,1.7302,1.7304,1.7342,1.7371,1.7387,1.742,1.7436,1.7473,1.7459,1.7472,1.7499,1.7515,1.7551,1.7511,1.7554,1.7555,1.7545,1.7618,1.7626,1.7682,1.7596,1.7598,1.7599,0,1.7175,1.7213,1.7289,1.7328,1.7345,1.738,1.7419,1.7453,1.7485,1.7494,1.752,1.7523,1.7566,1.7542,1.76,1.7573,1.7591,1.7602,1.7604,1.7607,1.7579,1.7621,1.77,1.7708,1.7612,1.7611,1.761,0,1.7211,1.7282,1.7336,1.7355,1.7402,1.7427,1.7447,1.7478,1.7502,1.7536,1.7552,1.7589,1.7608,1.7636,1.7647,1.7629,1.7704,1.7681,1.771,1.771,1.7724,1.7723,1.7806,1.774,1.774,1.7739,1.7739,0,1.7276,1.7322,1.7354,1.7386,1.7437,1.7454,1.7502,1.7521,1.7549,1.7584,1.7587,1.7618,1.7633,1.7666,1.7675,1.7721,1.773,1.7736,1.7737,1.7735,1.7734,1.7745,1.7741,1.7742,1.7741,1.7741,1.774,0,1.7324,1.7348,1.7407,1.7449,1.746,1.7495,1.7529,1.7559,1.7576,1.7619,1.763,1.7655,1.7694,1.7709,1.7756,1.7762,1.7814,1.7813,1.7804,1.7804,1.7832,1.7829,1.7924,1.7936,1.7863,1.7864,1.7865,0,1.7363,1.7399,1.7446,1.7471,1.7493,1.7533,1.7559,1.7577,1.7603,1.7644,1.7669,1.7709,1.7742,1.7804,1.7823,1.7859,1.7858,1.7889,1.7863,1.7859,1.7856,1.7853,1.7856,1.7892,1.7893,1.7894,1.7894,0,1.7429,1.744,1.7479,1.7523,1.7555,1.7589,1.7622,1.7642,1.7664,1.7693,1.7735,1.7761,1.7811,1.7849,1.7887,1.7903,1.7902,1.7903,1.7911,1.7908,1.79,1.7903,1.7815,1.79,1.7899,1.7899,1.7899,1.7898,1.7473,1.7505,1.7543,1.7587,1.7614,1.7646,1.7677,1.7699,1.7736,1.778,1.7787,1.7832,1.7862,1.7913,1.7932,1.7965,1.7956,1.7968,1.7971,1.7974,1.7975,1.7898,1.7971,1.7971,1.7971,1.7971,1.7971,0,1.7537,1.7563,1.7603,1.7652,1.7686,1.7686,1.7723,1.775,1.779,1.7821,1.7855,1.7903,1.7941,1.7965,1.8002,1.8024,1.8024,1.8033,1.803,1.8034,1.7981,1.797,1.8032,1.8032,1.8032,1.8032,1.8032,1.8032,1.7575,1.7629,1.7644,1.7711,1.7735,1.7782,1.7803,1.7831,1.7856,1.791,1.7944,1.796,1.7988,1.8028,1.8062,1.8067,1.808,1.809,1.8094,1.8044,1.8037,1.8031,1.802,1.8093,1.8093,1.8144,1.8144,1.8145]},{"header":{"parameterUnit":"m.s-1","parameterCategory":1,"la1":30.2991,"la2":30.254,"lo1":-89.0895,"lo2":-89.0444,"dy":0.0017,"dx":0.0017,"nx":28,"ny":28,"refTime":"2024-09-02T21:00:00:Z","depth":0,"parameterNumber":3,"parameterNumberName":"V-component_of_WINDS"},"data":[0,0,0,0,0,0,0,0,0,0,0,0,0,0,0,0,0,0,0,0,0,0,0,0,0,0,0,0,0,0,0,0,0,0,0,0,0,0,0,0,0,0,0,0,0,0,0,0,0,0,0,0,0,0,0,0,0,0,2.6389,2.6388,0,2.628,2.6279,2.6277,2.6168,2.6167,2.6166,2.6164,2.6047,2.6046,2.6044,0,0,0,0,0,0,0,0,0,0,0,0,0,2.6501,2.65,2.639,2.6388,2.6387,2.628,2.6278,2.6277,2.6169,2.6167,2.6165,2.6164,2.6048,2.6046,2.6044,0,0,0,0,0,0,0,0,0,0,0,0,0,2.6428,2.6499,2.639,2.632,2.6313,2.628,2.6278,2.6277,2.6169,2.6167,2.6165,2.6163,2.6049,2.6046,2.6043,2.6069,0,0,2.6035,2.6034,0,0,0,0,0,0,0,0,2.6432,2.6424,2.6332,2.6325,2.6317,2.6236,2.6275,2.6207,2.617,2.6224,2.6164,2.6162,2.6111,2.6103,2.6087,2.6064,2.6059,2.6035,2.6033,2.6032,2.6031,0,0,0,0,0,0,0,2.6438,2.6428,2.6346,2.633,2.6321,2.6293,2.628,2.6261,2.6181,2.6219,2.621,2.6199,2.6107,2.609,2.6084,2.6057,2.6035,2.6033,2.6031,2.603,2.6048,2.605,0,0,0,0,0,0,2.6454,2.6433,2.6349,2.6343,2.6371,2.6293,2.6278,2.6264,2.6181,2.6166,2.6201,2.6195,2.6096,2.6087,2.6079,2.6103,2.6032,2.603,2.6028,2.6046,2.6048,2.6051,0,0,0,0,0,0,2.6457,2.6448,2.6354,2.6386,2.6372,2.6293,2.6277,2.6263,2.6246,2.6167,2.6152,2.6199,2.6094,2.6083,2.6073,2.6097,2.6028,2.6026,2.6043,2.6047,2.605,2.6152,0,0,0,0,0,0,2.646,2.6449,2.6459,2.6387,2.637,2.6351,2.6279,2.6262,2.6242,2.6233,2.6162,2.6148,2.6091,2.6077,2.607,2.6092,2.6024,2.6041,2.6045,2.6049,2.6146,2.6158,2.6168,0,0,0,0,0,2.6465,2.6492,2.646,2.6451,2.6382,2.6353,2.6343,2.6279,2.6245,2.6253,2.6203,2.615,2.6097,2.6077,2.6068,2.609,2.6039,2.6044,2.6048,2.6141,2.6156,2.6168,0,0,0,0,0,0,2.6567,2.6481,2.6445,2.645,2.641,2.6334,2.6343,2.6297,2.6264,2.6256,2.6177,2.6161,2.616,2.6124,2.6104,2.611,2.606,2.6063,2.6134,2.6147,2.6158,2.6166,2.6022,0,0,0,0,0,2.6591,2.6576,2.6501,2.6512,2.6494,2.6423,2.6407,2.6362,2.6316,2.6298,2.6246,2.6203,2.6176,2.616,2.6131,2.6141,2.6122,2.6151,2.6163,2.6172,2.6175,2.6176,2.6187,2.6066,2.6066,2.6066,0,0,2.6639,2.659,2.6585,2.6531,2.6495,2.6479,2.6409,2.6395,2.6383,2.6295,2.6282,2.6243,2.6189,2.6189,2.6186,2.6159,2.6205,2.6178,2.6187,2.6184,2.6182,2.6194,2.6204,2.6069,2.6069,2.6068,0,0,2.6717,2.668,2.6684,2.6649,2.6596,2.6548,2.655,2.6481,2.6452,2.6439,2.6372,2.6356,2.6312,2.6275,2.6251,2.6317,2.6267,2.631,2.6368,2.637,2.638,2.6388,2.6409,2.6418,2.6314,2.6314,2.6314,0,2.6783,2.6758,2.6692,2.6683,2.6661,2.6583,2.6586,2.6555,2.6494,2.648,2.6451,2.6393,2.6352,2.6341,2.6357,2.6341,2.6338,2.6317,2.6384,2.6391,2.6398,2.6417,2.6426,2.6319,2.6319,2.6318,2.6318,0,2.684,2.6825,2.6835,2.6779,2.6758,2.6756,2.6687,2.6674,2.6631,2.6586,2.6572,2.652,2.6478,2.6473,2.643,2.6456,2.644,2.6399,2.6347,2.6416,2.6433,2.644,2.6327,2.6325,2.6324,2.6322,0,0,2.6978,2.6888,2.6892,2.6866,2.6801,2.6787,2.678,2.6741,2.673,2.6691,2.6682,2.6647,2.6608,2.6581,2.6533,2.6535,2.6589,2.6493,2.6491,2.6511,2.6612,2.6642,2.6652,2.6556,2.6557,2.6558,2.6616,0,2.7044,2.7029,2.697,2.6971,2.6955,2.6881,2.6875,2.6834,2.6792,2.6771,2.6724,2.67,2.6652,2.6634,2.6633,2.6583,2.6608,2.6578,2.6544,2.6544,2.6558,2.6661,2.6693,2.675,2.6622,2.6623,2.6624,0,2.7119,2.7086,2.7087,2.7022,2.7013,2.7009,2.6968,2.6949,2.6901,2.687,2.6841,2.6788,2.6774,2.6728,2.6708,2.6689,2.6672,2.6645,2.6645,2.6638,2.6587,2.6654,2.6767,2.6775,2.6634,2.6634,2.6633,0,2.7217,2.7173,2.7167,2.7147,2.7072,2.7071,2.7039,2.6989,2.6969,2.6933,2.6919,2.6882,2.6861,2.6833,2.677,2.6743,2.6757,2.6705,2.6729,2.673,2.6733,2.6733,2.6842,2.6726,2.6726,2.6726,2.6726,0,2.7295,2.7298,2.721,2.7207,2.7207,2.7139,2.714,2.7102,2.7058,2.7044,2.6978,2.6966,2.6886,2.6864,2.6815,2.6805,2.6796,2.6769,2.6756,2.6774,2.6777,2.676,2.6753,2.6728,2.6728,2.6727,2.6727,0,2.7404,2.7346,2.7335,2.7266,2.7248,2.7251,2.7191,2.7184,2.7139,2.7122,2.7114,2.7043,2.7014,2.695,2.6903,2.687,2.6871,2.6849,2.6888,2.6879,2.6906,2.6904,2.7005,2.7014,2.6896,2.6897,2.6898,0,2.7457,2.7457,2.7389,2.7376,2.7347,2.7327,2.7307,2.724,2.7221,2.7166,2.7165,2.7132,2.7101,2.7058,2.7001,2.6964,2.6939,2.6977,2.6933,2.6951,2.6937,2.6937,2.6935,2.6986,2.6988,2.6989,2.699,0,2.7556,2.7527,2.7502,2.7467,2.7445,2.7414,2.7378,2.7371,2.7294,2.7277,2.7248,2.7224,2.7177,2.7144,2.7099,2.7064,2.7014,2.7005,2.7008,2.7026,2.7048,2.7034,2.6913,2.7003,2.7001,2.7,2.7,2.6999,2.7636,2.7633,2.7585,2.7558,2.7525,2.7494,2.7484,2.7438,2.7413,2.7371,2.7332,2.7306,2.7257,2.7192,2.7161,2.7138,2.7113,2.7118,2.7118,2.712,2.7127,2.7054,2.713,2.7129,2.7129,2.7128,2.7128,0,2.773,2.7696,2.7672,2.7626,2.7605,2.7563,2.7521,2.7506,2.7484,2.7444,2.7415,2.7381,2.7348,2.729,2.7251,2.7244,2.722,2.7236,2.7235,2.7227,2.7153,2.7153,2.7257,2.7257,2.7257,2.7257,2.7257,2.7256,2.7776,2.7768,2.7734,2.7708,2.7673,2.7649,2.7629,2.7599,2.7566,2.7531,2.7504,2.7467,2.7418,2.7376,2.7344,2.7327,2.7315,2.7338,2.7314,2.7245,2.7233,2.7221,2.7221,2.7337,2.7337,2.739,2.739,2.7391]}]]